Time,TemperatureF,DewpointF,PressureIn,WindDirection,WindDirectionDegrees,WindSpeedMPH,WindSpeedGustMPH,Humidity,HourlyPrecipIn,Conditions,Clouds,dailyrainin,SoftwareType,DateUTC
2014-01-02 00:06:00,40.3,39.0,29.91,West,263,0.0,2.0,96,0.01,,,0.10,weatherlink.com 1.10,2014-01-02 06:06:00,
2014-01-02 00:21:00,40.2,39.0,29.91,West,263,0.0,0.0,97,0.00,,,0.10,weatherlink.com 1.10,2014-01-02 06:21:00,
2014-01-02 00:36:00,40.2,39.0,29.90,West,263,0.0,0.0,97,0.00,,,0.10,weatherlink.com 1.10,2014-01-02 06:36:00,
2014-01-02 00:51:00,40.1,39.0,29.90,West,263,1.0,2.0,97,0.00,,,0.10,weatherlink.com 1.10,2014-01-02 06:51:00,
2014-01-02 01:06:00,40.2,39.0,29.90,West,263,0.0,1.0,97,0.00,,,0.10,weatherlink.com 1.10,2014-01-02 07:06:00,
2014-01-02 01:21:00,40.2,39.0,29.89,West,263,0.0,0.0,97,0.00,,,0.10,weatherlink.com 1.10,2014-01-02 07:21:00,
2014-01-02 01:36:00,40.2,39.0,29.89,West,263,0.0,0.0,97,0.00,,,0.10,weatherlink.com 1.10,2014-01-02 07:36:00,
2014-01-02 01:51:00,40.4,40.0,29.90,West,263,0.0,0.0,97,0.00,,,0.10,weatherlink.com 1.10,2014-01-02 07:51:00,
2014-01-02 02:06:00,40.2,40.0,29.91,West,263,0.0,0.0,98,0.00,,,0.10,weatherlink.com 1.10,2014-01-02 08:06:00,
2014-01-02 02:21:00,40.2,40.0,29.90,West,263,0.0,0.0,98,0.00,,,0.10,weatherlink.com 1.10,2014-01-02 08:21:00,
2014-01-02 02:36:00,40.2,40.0,29.89,West,263,0.0,0.0,98,0.00,,,0.00,weatherlink.com 1.10,2014-01-02 08:36:00,
2014-01-02 02:51:00,40.1,40.0,29.89,West,263,0.0,0.0,98,0.00,,,0.00,weatherlink.com 1.10,2014-01-02 08:51:00,
2014-01-02 03:21:00,40.2,40.0,29.88,West,263,0.0,0.0,98,0.01,,,0.01,weatherlink.com 1.10,2014-01-02 09:21:00,
2014-01-02 03:36:00,40.4,40.0,29.87,West,263,0.0,1.0,98,0.01,,,0.01,weatherlink.com 1.10,2014-01-02 09:36:00,
2014-01-02 03:51:00,40.3,40.0,29.87,West,263,0.0,1.0,98,0.01,,,0.01,weatherlink.com 1.10,2014-01-02 09:51:00,
2014-01-02 04:06:00,40.2,40.0,29.86,West,263,0.0,1.0,98,0.00,,,0.01,weatherlink.com 1.10,2014-01-02 10:06:00,
2014-01-02 04:21:00,40.0,40.0,29.85,West,263,0.0,0.0,98,0.00,,,0.01,weatherlink.com 1.10,2014-01-02 10:21:00,
2014-01-02 04:36:00,39.9,39.0,29.86,West,263,0.0,1.0,98,0.00,,,0.01,weatherlink.com 1.10,2014-01-02 10:36:00,
2014-01-02 04:51:00,40.2,40.0,29.86,West,263,1.0,5.0,98,0.00,,,0.01,weatherlink.com 1.10,2014-01-02 10:51:00,
2014-01-02 05:06:00,40.3,40.0,29.86,WNW,283,7.0,10.0,98,0.01,,,0.02,weatherlink.com 1.10,2014-01-02 11:06:00,
2014-01-02 05:21:00,38.7,38.0,29.88,NW,304,5.0,15.0,98,0.02,,,0.03,weatherlink.com 1.10,2014-01-02 11:21:00,
2014-01-02 05:36:00,37.4,37.0,29.88,NNE,13,4.0,13.0,98,0.02,,,0.03,weatherlink.com 1.10,2014-01-02 11:36:00,
2014-01-02 05:51:00,36.5,36.0,29.89,NW,320,8.0,16.0,98,0.02,,,0.04,weatherlink.com 1.10,2014-01-02 11:51:00,
2014-01-02 06:06:00,34.2,34.0,29.92,NNW,336,8.0,20.0,97,0.03,,,0.05,weatherlink.com 1.10,2014-01-02 12:06:00,
2014-01-02 06:21:00,33.0,32.0,29.93,West,275,6.0,14.0,97,0.02,,,0.05,weatherlink.com 1.10,2014-01-02 12:21:00,
2014-01-02 06:36:00,31.9,31.0,29.92,WNW,302,7.0,13.0,97,0.02,,,0.05,weatherlink.com 1.10,2014-01-02 12:36:00,
2014-01-02 06:51:00,30.5,30.0,29.93,NNW,336,9.0,21.0,97,0.01,,,0.05,weatherlink.com 1.10,2014-01-02 12:51:00,
2014-01-02 07:07:00,29.6,29.0,29.94,NNW,329,10.0,16.0,97,0.00,,,0.05,weatherlink.com 1.10,2014-01-02 13:07:00,
2014-01-02 07:22:00,28.0,27.0,29.96,NNW,333,6.0,19.0,97,0.00,,,0.05,weatherlink.com 1.10,2014-01-02 13:22:00,
2014-01-02 07:37:00,26.8,26.0,29.98,NW,306,4.0,18.0,97,0.00,,,0.05,weatherlink.com 1.10,2014-01-02 13:37:00,
2014-01-02 07:52:00,26.8,26.0,29.99,NNW,336,3.0,14.0,97,0.00,,,0.05,weatherlink.com 1.10,2014-01-02 13:52:00,
2014-01-02 08:07:00,25.8,25.0,30.00,WNW,297,10.0,20.0,96,0.00,,,0.05,weatherlink.com 1.10,2014-01-02 14:07:00,
2014-01-02 08:22:00,25.7,25.0,30.01,North,349,12.0,20.0,96,0.00,,,0.05,weatherlink.com 1.10,2014-01-02 14:22:00,
2014-01-02 08:37:00,25.6,24.0,30.02,NW,321,8.0,12.0,95,0.00,,,0.05,weatherlink.com 1.10,2014-01-02 14:37:00,
2014-01-02 08:52:00,25.4,24.0,30.03,NNW,337,15.0,16.0,94,0.00,,,0.05,weatherlink.com 1.10,2014-01-02 14:52:00,
2014-01-02 09:07:00,25.2,24.0,30.04,North,5,7.0,14.0,93,0.00,,,0.05,weatherlink.com 1.10,2014-01-02 15:07:00,
2014-01-02 09:22:00,25.2,23.0,30.05,NW,316,6.0,20.0,92,0.00,,,0.05,weatherlink.com 1.10,2014-01-02 15:22:00,
2014-01-02 09:37:00,25.6,23.0,30.06,West,277,5.0,14.0,91,0.00,,,0.05,weatherlink.com 1.10,2014-01-02 15:37:00,
2014-01-02 09:52:00,25.1,23.0,30.08,NW,317,12.0,16.0,90,0.00,,,0.05,weatherlink.com 1.10,2014-01-02 15:52:00,
2014-01-02 10:07:00,25.4,22.0,30.09,WNW,290,10.0,16.0,87,0.00,,,0.05,weatherlink.com 1.10,2014-01-02 16:07:00,
2014-01-02 10:22:00,25.5,22.0,30.09,NNW,338,6.0,15.0,86,0.00,,,0.05,weatherlink.com 1.10,2014-01-02 16:22:00,
2014-01-02 10:37:00,26.1,22.0,30.10,North,355,13.0,23.0,84,0.00,,,0.05,weatherlink.com 1.10,2014-01-02 16:37:00,
2014-01-02 10:52:00,26.0,22.0,30.11,WNW,284,8.0,14.0,85,0.00,,,0.05,weatherlink.com 1.10,2014-01-02 16:52:00,
2014-01-02 11:07:00,25.2,21.0,30.11,NNW,334,14.0,21.0,83,0.00,,,0.05,weatherlink.com 1.10,2014-01-02 17:07:00,
2014-01-02 11:22:00,25.1,21.0,30.11,NW,325,7.0,20.0,83,0.00,,,0.05,weatherlink.com 1.10,2014-01-02 17:22:00,
2014-01-02 11:37:00,25.4,21.0,30.11,WNW,297,6.0,13.0,83,0.00,,,0.05,weatherlink.com 1.10,2014-01-02 17:37:00,
2014-01-02 11:52:00,25.1,21.0,30.11,NW,319,7.0,15.0,83,0.00,,,0.05,weatherlink.com 1.10,2014-01-02 17:52:00,
2014-01-02 12:07:00,24.8,20.0,30.11,NW,304,7.0,18.0,83,0.00,,,0.05,weatherlink.com 1.10,2014-01-02 18:07:00,
2014-01-02 12:22:00,24.9,21.0,30.11,NW,321,14.0,15.0,84,0.00,,,0.05,weatherlink.com 1.10,2014-01-02 18:22:00,
2014-01-02 12:38:00,25.1,21.0,30.12,WNW,298,9.0,16.0,83,0.00,,,0.05,weatherlink.com 1.10,2014-01-02 18:38:00,
2014-01-02 12:53:00,24.8,21.0,30.12,WNW,302,10.0,18.0,84,0.00,,,0.05,weatherlink.com 1.10,2014-01-02 18:53:00,
2014-01-02 13:08:00,24.8,20.0,30.13,NW,323,10.0,20.0,82,0.00,,,0.05,weatherlink.com 1.10,2014-01-02 19:08:00,
2014-01-02 13:23:00,24.5,19.0,30.13,West,264,8.0,18.0,81,0.00,,,0.05,weatherlink.com 1.10,2014-01-02 19:23:00,
2014-01-02 13:38:00,24.4,19.0,30.14,NNW,347,10.0,19.0,81,0.00,,,0.05,weatherlink.com 1.10,2014-01-02 19:38:00,
2014-01-02 13:53:00,24.8,20.0,30.14,WNW,299,6.0,16.0,83,0.00,,,0.05,weatherlink.com 1.10,2014-01-02 19:53:00,
2014-01-02 14:08:00,25.3,20.0,30.15,NNW,348,6.0,15.0,80,0.00,,,0.05,weatherlink.com 1.10,2014-01-02 20:08:00,
2014-01-02 14:23:00,25.2,19.0,30.15,NW,324,18.0,18.0,78,0.00,,,0.05,weatherlink.com 1.10,2014-01-02 20:23:00,
2014-01-02 14:38:00,24.7,18.0,30.16,WNW,291,8.0,16.0,77,0.00,,,0.05,weatherlink.com 1.10,2014-01-02 20:38:00,
2014-01-02 14:53:00,25.2,19.0,30.16,WNW,302,7.0,16.0,76,0.00,,,0.05,weatherlink.com 1.10,2014-01-02 20:53:00,
2014-01-02 15:08:00,24.7,18.0,30.17,North,5,11.0,18.0,74,0.00,,,0.05,weatherlink.com 1.10,2014-01-02 21:08:00,
2014-01-02 15:23:00,24.9,18.0,30.18,NNW,336,11.0,15.0,74,0.00,,,0.05,weatherlink.com 1.10,2014-01-02 21:23:00,
2014-01-02 15:38:00,24.8,18.0,30.19,NNW,346,3.0,15.0,74,0.00,,,0.05,weatherlink.com 1.10,2014-01-02 21:38:00,
2014-01-02 15:53:00,24.9,18.0,30.20,WNW,300,5.0,18.0,74,0.00,,,0.05,weatherlink.com 1.10,2014-01-02 21:53:00,
2014-01-02 16:08:00,24.3,17.0,30.22,NW,314,12.0,16.0,73,0.00,,,0.05,weatherlink.com 1.10,2014-01-02 22:08:00,
2014-01-02 16:23:00,24.1,17.0,30.23,WNW,296,8.0,15.0,75,0.00,,,0.05,weatherlink.com 1.10,2014-01-02 22:23:00,
2014-01-02 16:38:00,23.9,17.0,30.24,North,349,7.0,15.0,74,0.00,,,0.05,weatherlink.com 1.10,2014-01-02 22:38:00,
2014-01-02 16:53:00,23.7,17.0,30.25,WNW,283,8.0,20.0,75,0.00,,,0.05,weatherlink.com 1.10,2014-01-02 22:53:00,
2014-01-02 17:08:00,23.5,16.0,30.25,NNW,330,8.0,16.0,74,0.00,,,0.05,weatherlink.com 1.10,2014-01-02 23:08:00,
2014-01-02 17:23:00,23.2,16.0,30.27,West,262,7.0,16.0,74,0.00,,,0.05,weatherlink.com 1.10,2014-01-02 23:23:00,
2014-01-02 17:38:00,23.2,16.0,30.27,NNW,336,5.0,14.0,75,0.00,,,0.05,weatherlink.com 1.10,2014-01-02 23:38:00,
2014-01-02 17:53:00,22.8,16.0,30.28,NW,307,4.0,10.0,76,0.00,,,0.05,weatherlink.com 1.10,2014-01-02 23:53:00,
2014-01-02 18:08:00,22.2,16.0,30.29,WNW,292,3.0,12.0,77,0.00,,,0.05,weatherlink.com 1.10,2014-01-03 00:08:00,
2014-01-02 18:23:00,22.4,16.0,30.29,NW,320,3.0,12.0,77,0.00,,,0.05,weatherlink.com 1.10,2014-01-03 00:23:00,
2014-01-02 18:38:00,22.4,16.0,30.30,NW,323,6.0,10.0,76,0.00,,,0.05,weatherlink.com 1.10,2014-01-03 00:38:00,
2014-01-02 18:53:00,22.4,16.0,30.30,NNW,329,10.0,11.0,77,0.00,,,0.05,weatherlink.com 1.10,2014-01-03 00:53:00,
2014-01-02 19:09:00,22.4,17.0,30.31,NW,322,5.0,12.0,78,0.00,,,0.05,weatherlink.com 1.10,2014-01-03 01:09:00,
2014-01-02 19:24:00,21.9,15.0,30.32,NW,322,9.0,20.0,75,0.00,,,0.05,weatherlink.com 1.10,2014-01-03 01:24:00,
2014-01-02 19:39:00,21.3,15.0,30.32,North,350,9.0,16.0,75,0.00,,,0.05,weatherlink.com 1.10,2014-01-03 01:39:00,
2014-01-02 19:54:00,20.8,14.0,30.33,NNW,338,9.0,14.0,76,0.00,,,0.05,weatherlink.com 1.10,2014-01-03 01:54:00,
2014-01-02 20:09:00,20.5,14.0,30.33,NW,323,11.0,16.0,77,0.00,,,0.05,weatherlink.com 1.10,2014-01-03 02:09:00,
2014-01-02 20:24:00,20.4,14.0,30.34,NNW,346,6.0,14.0,77,0.00,,,0.05,weatherlink.com 1.10,2014-01-03 02:24:00,
2014-01-02 20:39:00,20.2,14.0,30.34,NNW,345,5.0,12.0,77,0.00,,,0.05,weatherlink.com 1.10,2014-01-03 02:39:00,
2014-01-02 20:54:00,20.0,14.0,30.36,NNW,338,5.0,13.0,77,0.00,,,0.05,weatherlink.com 1.10,2014-01-03 02:54:00,
2014-01-02 21:09:00,19.9,14.0,30.36,NNW,329,9.0,15.0,77,0.00,,,0.05,weatherlink.com 1.10,2014-01-03 03:09:00,
2014-01-02 21:24:00,19.8,14.0,30.37,North,350,10.0,12.0,78,0.00,,,0.05,weatherlink.com 1.10,2014-01-03 03:24:00,
2014-01-02 21:39:00,19.4,14.0,30.37,North,350,8.0,13.0,78,0.00,,,0.05,weatherlink.com 1.10,2014-01-03 03:39:00,
2014-01-02 21:54:00,19.1,14.0,30.38,NNE,15,7.0,12.0,79,0.00,,,0.05,weatherlink.com 1.10,2014-01-03 03:54:00,
2014-01-02 22:09:00,18.9,13.0,30.38,NNW,330,5.0,12.0,79,0.00,,,0.05,weatherlink.com 1.10,2014-01-03 04:09:00,
2014-01-02 22:24:00,18.6,13.0,30.38,NNW,344,6.0,9.0,79,0.00,,,0.05,weatherlink.com 1.10,2014-01-03 04:24:00,
2014-01-02 22:39:00,18.0,13.0,30.38,NNW,342,4.0,8.0,80,0.00,,,0.05,weatherlink.com 1.10,2014-01-03 04:39:00,
2014-01-02 22:54:00,18.0,13.0,30.38,North,355,6.0,8.0,81,0.00,,,0.05,weatherlink.com 1.10,2014-01-03 04:54:00,
2014-01-02 23:09:00,17.5,13.0,30.39,NNW,338,0.0,5.0,82,0.00,,,0.05,weatherlink.com 1.10,2014-01-03 05:09:00,
2014-01-02 23:24:00,17.2,13.0,30.40,NW,312,6.0,7.0,83,0.00,,,0.05,weatherlink.com 1.10,2014-01-03 05:24:00,
2014-01-02 23:39:00,17.4,13.0,30.40,NNW,341,6.0,8.0,83,0.00,,,0.05,weatherlink.com 1.10,2014-01-03 05:39:00,
2014-01-02 23:54:00,17.2,13.0,30.41,NNW,340,1.0,9.0,83,0.00,,,0.05,weatherlink.com 1.10,2014-01-03 05:54:00,